Starlink 31419

operational
NORAD ID: 59368 Int'l Des: 2024-060 Owner: SPXS Country: US Constellation: starlink
LEOCIRCULAR

About Starlink 31419

Description loading...

Live Position

Loading 3D Globe...

Upcoming Passes

Altitude History

Altitude vs Time

uPlot chart will show altitude changes over time

Two-Line Element Set

1 59368U 24060W 26036.38655061 .00001426 00000-0 61337-4 0 9991
2 59368 42.9995 82.1804 0001531 185.7311 174.3524 15.27581232105121
Epoch: Feb 5, 2026 • Age: 11 hours

Current Status

Altitude 496.1 km
Velocity 7.62 km/s
Sub-Earth Point -42.38°S, 71.66°W
Launch Date Mar 31, 2024
Age 1.8 years
Type internet

Technical Details

Classification Payload
Mass 730.00 kg
Dry Mass 700.00 kg
Total Mass 730.00 kg
Length 0.30 m
Diameter 4.10 m
Span 29.00 m
Shape Box + pan
Manufacturer SPXS
Bus Type Starlink V2M
Phase Status In Orbit
Owner/State SPXS/US

Large Constellations

Loading constellations...